| time (UTC) | temp F | wind direction | speed MPH | gust MPH | rain 1hr in | rain 24hr in | rain mn in | humidity % | barometer mb |
| 20260503223050 | 83 | 183 | 2.0 | 9.0 | 0.00 | 0.00 | 0.00 | 31 | 1016.0 |
| 20260503221555 | 83 | 153 | 2.0 | 9.0 | 0.00 | 0.00 | 0.00 | 32 | 1016.1 |
| 20260503220048 | 83 | 170 | 0.0 | 9.0 | 0.00 | 0.00 | 0.00 | 31 | 1016.2 |
| 20260503214547 | 84 | 224 | 0.0 | 6.0 | 0.00 | 0.00 | 0.00 | 30 | 1016.4 |
| 20260503213153 | 84 | 134 | 0.0 | 6.0 | 0.00 | 0.00 | 0.00 | 32 | 1016.5 |
| 20260503193004 | 84 | 177 | 0.0 | 4.0 | 0.00 | 0.00 | 0.00 | 31 | 1018.6 |
| 20260503191554 | 84 | 141 | 0.0 | 6.0 | 0.00 | 0.00 | 0.00 | 32 | 1018.8 |
| 20260503184545 | 83 | 62 | 0.0 | 8.0 | 0.00 | 0.00 | 0.00 | 35 | 1019.2 |
| 20260503183049 | 82 | 221 | 0.0 | 5.0 | 0.00 | 0.00 | 0.00 | 35 | 1019.5 |
| 20260503180033 | 82 | 292 | 0.0 | 7.0 | 0.00 | 0.00 | 0.00 | 36 | 1020.0 |
| 20260503174535 | 82 | 219 | 0.0 | 4.0 | 0.00 | 0.00 | 0.00 | 37 | 1020.3 |
| 20260503173058 | 81 | 247 | 0.0 | 7.0 | 0.00 | 0.00 | 0.00 | 38 | 1020.6 |
| 20260503171613 | 81 | 280 | 0.0 | 7.0 | 0.00 | 0.00 | 0.00 | 39 | 1020.8 |
| 20260503170133 | 80 | 304 | 0.0 | 4.0 | 0.00 | 0.00 | 0.00 | 40 | 1021.0 |
| 20260503054526 | 62 | 156 | 0.0 | 0.0 | 0.00 | 0.00 | 0.00 | 59 | 1020.1 |
| 20260503053027 | 62 | 136 | 0.0 | 0.0 | 0.00 | 0.00 | 0.00 | 58 | 1020.0 |
| 20260503051524 | 63 | 169 | 0.0 | 1.0 | 0.00 | 0.00 | 0.00 | 57 | 1019.9 |
| 20260503050017 | 63 | 167 | 0.0 | 0.0 | 0.00 | 0.00 | 0.00 | 57 | 1019.9 |
| 20260503044524 | 64 | 116 | 0.0 | 0.0 | 0.00 | 0.00 | 0.00 | 56 | 1019.9 |
| 20260503043016 | 64 | 131 | 0.0 | 0.0 | 0.00 | 0.00 | 0.00 | 54 | 1019.9 |
| 20260503041516 | 65 | 132 | 0.0 | 1.0 | 0.00 | 0.00 | 0.00 | 53 | 1019.9 |
| 20260503040016 | 65 | 109 | 0.0 | 0.0 | 0.00 | 0.00 | 0.00 | 51 | 1019.9 |
| 20260503034515 | 65 | 124 | 0.0 | 1.0 | 0.00 | 0.00 | 0.00 | 50 | 1019.9 |
| 20260503033015 | 65 | 139 | 0.0 | 0.0 | 0.00 | 0.00 | 0.00 | 51 | 1019.8 |
| 20260503031514 | 66 | 130 | 0.0 | 3.0 | 0.00 | 0.00 | 0.00 | 51 | 1019.7 |
| 20260503030013 | 64 | 153 | 0.0 | 0.0 | 0.00 | 0.00 | 0.00 | 52 | 1019.6 |
| 20260503024512 | 64 | 132 | 0.0 | 0.0 | 0.00 | 0.00 | 0.00 | 52 | 1019.5 |
| 20260503023034 | 65 | 132 | 0.0 | 0.0 | 0.00 | 0.00 | 0.00 | 51 | 1019.4 |
| 20260503021512 | 66 | 132 | 0.0 | 0.0 | 0.00 | 0.00 | 0.00 | 48 | 1019.3 |
| 20260503020011 | 68 | 132 | 0.0 | 0.0 | 0.00 | 0.00 | 0.00 | 46 | 1019.2 |
| 20260503014511 | 69 | 132 | 0.0 | 0.0 | 0.00 | 0.00 | 0.00 | 43 | 1019.2 |
| 20260503013118 | 69 | 149 | 0.0 | 2.0 | 0.00 | 0.00 | 0.00 | 43 | 1019.0 |
| 20260503011509 | 70 | 126 | 0.0 | 0.0 | 0.00 | 0.00 | 0.00 | 41 | 1019.0 |
| 20260503010009 | 71 | 126 | 0.0 | 0.0 | 0.00 | 0.00 | 0.00 | 38 | 1018.8 |
| 20260503004509 | 73 | 126 | 0.0 | 0.0 | 0.00 | 0.00 | 0.00 | 35 | 1018.7 |
| 20260503003008 | 74 | 136 | 0.0 | 0.0 | 0.00 | 0.00 | 0.00 | 34 | 1018.5 |
| 20260503001508 | 75 | 219 | 0.0 | 0.0 | 0.00 | 0.00 | 0.00 | 32 | 1018.5 |
| 20260503000014 | 76 | 219 | 0.0 | 3.0 | 0.00 | 0.00 | 0.00 | 30 | 1018.4 |
| 20260502224533 | 80 | 323 | 0.0 | 3.0 | 0.00 | 0.00 | 0.00 | 28 | 1018.9 |